Location: Caracas
(10.5033°N, 66.8422°W)
Time: 23:58:19
(UTC-04:00)

Tiangong 2 - Pass Details

Date: 18 November 2017
Orbit: 386 x 392 km, 42.8° (Epoch: 24 November)

Event Time Altitude Azimuth Distance (km) Brightness Sun altitude
Rises 18:23:34 0° 306° (NW) 2,256 5.5 -6.0°
Reaches altitude 10° 18:25:40 10° 300° (WNW) 1,401 4.5 -6.5°
Maximum altitude 18:28:43 46° 225° (SW) 520 2.2 -7.2°
Drops below altitude 10° 18:31:47 10° 150° (SSE) 1,398 3.8 -7.9°
Sets 18:33:53 0° 144° (SE) 2,250 4.8 -8.4°
